QPF
0.07 0.06 0.06 0.05 0.04 0.04 0.05 0.06 0.05 0.05 0.05 0.05 0.04 0.03 0.03 0.04 0.04 0.04 0.04 0.03 0.04 0.05 0.06 0.08 0.09 0.07 0.07 0.07 0.06 0.05 0.05 0.04 0.03 0.02 0.02 0.02 0.03 0.03 0.03 0.02 0.02 0.02 0.02
0.09 0.09 0.07 0.07 0.06 0.06 0.05 0.04 0.05 0.06 0.04 0.04 0.04 0.04 0.05 0.06 0.05 0.04 0.03 0.04 0.03 0.04 0.05 0.07 0.10 0.09 0.08 0.08 0.08 0.08 0.07 0.07 0.05 0.04 0.03 0.02 0.03 0.04 0.03 0.03 0.04 0.03 0.03
0.09 0.08 0.07 0.08 0.06 0.06 0.05 0.05 0.05 0.06 0.05 0.04 0.04 0.05 0.05 0.06 0.06 0.06 0.05 0.06 0.05 0.04 0.04 0.06 0.07 0.10 0.10 0.11 0.11 0.10 0.09 0.09 0.10 0.09 0.06 0.05 0.04 0.03 0.04 0.04 0.04 0.04 0.03
0.05 0.07 0.07 0.07 0.05 0.05 0.06 0.07 0.07 0.07 0.07 0.05 0.04 0.04 0.03 0.05 0.04 0.05 0.05 0.06 0.06 0.06 0.05 0.05 0.07 0.08 0.11 0.15 0.17 0.23 0.24 0.18 0.17 0.16 0.10 0.08 0.05 0.05 0.04 0.04 0.04 0.04 0.04
0.05 0.08 0.09 0.08 0.07 0.06 0.06 0.05 0.05 0.06 0.07 0.07 0.06 0.05 0.05 0.05 0.04 0.05 0.05 0.04 0.04 0.04 0.04 0.04 0.05 0.06 0.08 0.13 0.16 0.17 0.18 0.18 0.19 0.21 0.17 0.13 0.11 0.10 0.09 0.08 0.08 0.08 0.07
0.05 0.08 0.08 0.06 0.06 0.07 0.08 0.07 0.06 0.06 0.06 0.07 0.05 0.05 0.06 0.05 0.04 0.04 0.03 0.03 0.03 0.03 0.04 0.05 0.07 0.08 0.08 0.10 0.12 0.16 0.19 0.19 0.20 0.19 0.19 0.22 0.22 0.19 0.17 0.14 0.11 0.08 0.06
0.06 0.09 0.07 0.07 0.05 0.07 0.09 0.07 0.06 0.05 0.07 0.06 0.07 0.06 0.06 0.06 0.06 0.06 0.04 0.03 0.03 0.03 0.04 0.04 0.05 0.06 0.07 0.08 0.10 0.12 0.19 0.22 0.20 0.20 0.22 0.22 0.18 0.19 0.19 0.16 0.12 0.09 0.07
0.05 0.06 0.09 0.07 0.07 0.07 0.08 0.08 0.08 0.07 0.07 0.08 0.09 0.09 0.08 0.07 0.06 0.05 0.05 0.05 0.05 0.06 0.05 0.04 0.06 0.08 0.10 0.14 0.14 0.12 0.22 0.26 0.28 0.28 0.24 0.17 0.13 0.13 0.13 0.14 0.12 0.09 0.08
0.04 0.04 0.05 0.06 0.06 0.06 0.09 0.10 0.09 0.11 0.11 0.10 0.09 0.11 0.12 0.10 0.07 0.05 0.04 0.04 0.05 0.05 0.05 0.06 0.08 0.09 0.09 0.12 0.11 0.10 0.14 0.15 0.17 0.17 0.15 0.15 0.13 0.12 0.13 0.14 0.14 0.13 0.11
0.02 0.01 0.02 0.03 0.04 0.04 0.07 0.08 0.07 0.10 0.11 0.11 0.09 0.08 0.09 0.09 0.09 0.07 0.06 0.04 0.04 0.04 0.05 0.07 0.09 0.08 0.08 0.08 0.07 0.05 0.05 0.06 0.08 0.11 0.12 0.13 0.14 0.16 0.16 0.15 0.14 0.14 0.11
0.01 0.01 0.01 0.02 0.03 0.03 0.04 0.04 0.06 0.07 0.06 0.08 0.08 0.06 0.07 0.08 0.07 0.08 0.06 0.05 0.05 0.05 0.07 0.08 0.06 0.07 0.07 0.07 0.05 0.03 0.02 0.03 0.05 0.07 0.08 0.11 0.14 0.16 0.17 0.19 0.20 0.19 0.17
0.02 0.02 0.01 0.02 0.03 0.03 0.03 0.04 0.05 0.05 0.05 0.07 0.08 0.08 0.07 0.08 0.10 0.11 0.08 0.05 0.06 0.05 0.05 0.05 0.04 0.04 0.04 0.05 0.04 0.03 0.03 0.05 0.08 0.10 0.09 0.10 0.13 0.14 0.16 0.18 0.20 0.22 0.24
0.02 0.01 0.01 0.02 0.02 0.02 0.02 0.03 0.04 0.04 0.05 0.06 0.06 0.06 0.06 0.08 0.10 0.11 0.09 0.06 0.06 0.04 0.04 0.03 0.04 0.05 0.05 0.05 0.05 0.05 0.06 0.07 0.09 0.10 0.10 0.11 0.11 0.13 0.15 0.19 0.20 0.24 0.32
0.02 0.01 0.01 0.01 0.02 0.03 0.02 0.04 0.04 0.04 0.04 0.04 0.03 0.05 0.06 0.07 0.07 0.08 0.08 0.08 0.06 0.05 0.06 0.07 0.08 0.08 0.07 0.05 0.06 0.05 0.06 0.08 0.09 0.10 0.10 0.09 0.07 0.07 0.09 0.12 0.16 0.19 0.18
0.01 0.01 0.01 0.02 0.02 0.04 0.05 0.05 0.04 0.04 0.04 0.04 0.04 0.06 0.05 0.05 0.04 0.06 0.08 0.09 0.07 0.07 0.08 0.09 0.10 0.10 0.09 0.09 0.08 0.07 0.07 0.09 0.08 0.05 0.05 0.06 0.06 0.06 0.07 0.07 0.07 0.08 0.09
0.02 0.01 0.02 0.02 0.03 0.04 0.05 0.06 0.05 0.05 0.05 0.05 0.04 0.04 0.03 0.03 0.03 0.03 0.05 0.07 0.08 0.08 0.06 0.06 0.06 0.07 0.07 0.08 0.08 0.06 0.05 0.05 0.05 0.05 0.05 0.05 0.04 0.04 0.03 0.03 0.05 0.06 0.06
0.01 0.02 0.02 0.02 0.03 0.03 0.03 0.03 0.03 0.04 0.04 0.04 0.03 0.03 0.02 0.02 0.02 0.03 0.04 0.05 0.07 0.09 0.08 0.07 0.05 0.04 0.05 0.03 0.02 0.02 0.03 0.04 0.04 0.03 0.03 0.03 0.03 0.03 0.02 0.03 0.04 0.06 0.07
0.01 0.01 0.01 0.01 0.02 0.02 0.02 0.02 0.02 0.02 0.02 0.02 0.03 0.03 0.03 0.02 0.02 0.03 0.04 0.04 0.06 0.07 0.07 0.06 0.06 0.05 0.04 0.04 0.03 0.03 0.03 0.03 0.03 0.03 0.02 0.02 0.02 0.02 0.02 0.03 0.04 0.05 0.06
0.00 0.01 0.01 0.01 0.02 0.02 0.01 0.01 0.01 0.01 0.01 0.01 0.02 0.02 0.02 0.03 0.02 0.02 0.03 0.03 0.04 0.05 0.06 0.05 0.05 0.05 0.04 0.04 0.04 0.03 0.03 0.03 0.03 0.02 0.02 0.02 0.02 0.03 0.05 0.05 0.05 0.05 0.06
0.00 0.01 0.01 0.01 0.01 0.01 0.01 0.01 0.01 0.01 0.01 0.01 0.01 0.01 0.02 0.03 0.03 0.03 0.04 0.04 0.04 0.05 0.06 0.07 0.05 0.04 0.04 0.03 0.03 0.03 0.03 0.03 0.02 0.01 0.02 0.02 0.03 0.05 0.06 0.06 0.06 0.05 0.05
0.01 0.01 0.01 0.01 0.00 0.00 0.00 0.01 0.01 0.01 0.01 0.01 0.01 0.01 0.02 0.02 0.03 0.04 0.06 0.05 0.04 0.05 0.05 0.06 0.04 0.04 0.04 0.04 0.03 0.02 0.03 0.04 0.03 0.02 0.02 0.02 0.02 0.03 0.03 0.03 0.04 0.04 0.03
0.01 0.01 0.00 0.00 0.00 0.00 0.00 0.00 0.00 0.01 0.01 0.01 0.01 0.01 0.02 0.02 0.02 0.04 0.06 0.07 0.07 0.05 0.05 0.04 0.03 0.04 0.04 0.03 0.03 0.03 0.04 0.04 0.03 0.03 0.03 0.03 0.03 0.03 0.03 0.03 0.03 0.03 0.02
0.01 0.01 0.01 0.00 0.00 0.00 0.00 0.00 0.00 0.00 0.00 0.01 0.01 0.02 0.04 0.03 0.03 0.04 0.05 0.06 0.05 0.04 0.03 0.03 0.03 0.03 0.03 0.03 0.02 0.02 0.03 0.04 0.03 0.03 0.04 0.07 0.07 0.06 0.04 0.04 0.04 0.03 0.03
0.01 0.02 0.02 0.00 0.00 0.00 0.00 0.00 0.00 0.01 0.01 0.01 0.02 0.04 0.04 0.04 0.04 0.03 0.04 0.05 0.04 0.03 0.03 0.02 0.02 0.02 0.01 0.01 0.01 0.02 0.03 0.03 0.03 0.04 0.05 0.06 0.06 0.05 0.04 0.04 0.03 0.03 0.02
0.01 0.01 0.01 0.00 0.00 0.00 0.00 0.00 0.02 0.01 0.01 0.01 0.02 0.02 0.01 0.02 0.02 0.02 0.02 0.03 0.03 0.02 0.02 0.01 0.01 0.01 0.01 0.01 0.01 0.02 0.02 0.03 0.04 0.05 0.06 0.07 0.07 0.05 0.05 0.03 0.02 0.01 0.01
0.01 0.01 0.00 0.00 0.01 0.00 0.00 0.00 0.00 0.00 0.00 0.00 0.01 0.00 0.00 0.00 0.00 0.01 0.02 0.02 0.01 0.01 0.01 0.01 0.01 0.01 0.01 0.01 0.01 0.02 0.03 0.04 0.06 0.06 0.06 0.06 0.06 0.04 0.03 0.02 0.01 0.01 0.01
MSLP
1016.42 1016.46 1016.43 1016.33 1016.21 1016.08 1015.97 1015.89 1015.82 1015.76 1015.66 1015.54 1015.39 1015.23 1015.12 1015.11 1015.22 1015.48 1015.88 1016.39 1016.93 1017.45 1017.90 1018.24 1018.46 1018.59 1018.65 1018.70 1018.77 1018.89 1019.06 1019.27 1019.49 1019.69 1019.85 1019.98 1020.06 1020.12 1020.18 1020.25 1020.36 1020.49 1020.64
1016.48 1016.49 1016.43 1016.31 1016.16 1016.01 1015.89 1015.80 1015.74 1015.68 1015.61 1015.50 1015.36 1015.20 1015.07 1015.01 1015.05 1015.23 1015.54 1015.96 1016.44 1016.93 1017.38 1017.75 1018.04 1018.24 1018.39 1018.51 1018.64 1018.79 1018.97 1019.17 1019.38 1019.56 1019.72 1019.84 1019.93 1020.01 1020.09 1020.18 1020.30 1020.43 1020.58
1016.46 1016.45 1016.37 1016.24 1016.08 1015.93 1015.81 1015.73 1015.68 1015.64 1015.57 1015.48 1015.34 1015.17 1015.00 1014.88 1014.84 1014.91 1015.11 1015.42 1015.82 1016.26 1016.70 1017.11 1017.46 1017.74 1017.98 1018.18 1018.36 1018.55 1018.74 1018.93 1019.11 1019.28 1019.43 1019.55 1019.66 1019.76 1019.87 1019.99 1020.12 1020.27 1020.43
1016.35 1016.32 1016.24 1016.12 1015.97 1015.84 1015.73 1015.67 1015.63 1015.59 1015.54 1015.45 1015.30 1015.11 1014.91 1014.72 1014.59 1014.56 1014.64 1014.85 1015.16 1015.54 1015.97 1016.39 1016.79 1017.15 1017.46 1017.73 1017.97 1018.17 1018.36 1018.54 1018.70 1018.84 1018.98 1019.10 1019.23 1019.36 1019.50 1019.65 1019.81 1019.97 1020.13
1016.18 1016.15 1016.08 1015.97 1015.86 1015.75 1015.67 1015.61 1015.58 1015.55 1015.49 1015.39 1015.24 1015.03 1014.78 1014.54 1014.34 1014.22 1014.21 1014.32 1014.55 1014.88 1015.28 1015.71 1016.14 1016.55 1016.92 1017.24 1017.50 1017.71 1017.89 1018.03 1018.16 1018.28 1018.39 1018.52 1018.66 1018.82 1018.99 1019.17 1019.36 1019.53 1019.69
1016.00 1015.97 1015.92 1015.84 1015.76 1015.68 1015.62 1015.57 1015.54 1015.49 1015.42 1015.31 1015.14 1014.91 1014.65 1014.38 1014.14 1013.96 1013.88 1013.93 1014.10 1014.38 1014.75 1015.17 1015.62 1016.05 1016.44 1016.77 1017.03 1017.23 1017.38 1017.48 1017.57 1017.65 1017.75 1017.87 1018.02 1018.20 1018.40 1018.60 1018.80 1018.98 1019.13
1015.85 1015.84 1015.81 1015.77 1015.72 1015.67 1015.62 1015.57 1015.52 1015.45 1015.35 1015.22 1015.03 1014.80 1014.54 1014.27 1014.02 1013.83 1013.73 1013.73 1013.87 1014.11 1014.45 1014.86 1015.29 1015.72 1016.10 1016.42 1016.66 1016.82 1016.92 1016.98 1017.01 1017.06 1017.13 1017.24 1017.40 1017.59 1017.80 1018.02 1018.21 1018.38 1018.51
1015.79 1015.78 1015.78 1015.78 1015.76 1015.73 1015.68 1015.61 1015.53 1015.43 1015.30 1015.14 1014.95 1014.72 1014.48 1014.24 1014.02 1013.85 1013.76 1013.77 1013.88 1014.11 1014.42 1014.80 1015.21 1015.60 1015.95 1016.23 1016.43 1016.54 1016.59 1016.59 1016.57 1016.58 1016.63 1016.72 1016.88 1017.07 1017.28 1017.49 1017.66 1017.80 1017.88
1015.82 1015.82 1015.84 1015.86 1015.86 1015.84 1015.78 1015.70 1015.58 1015.44 1015.27 1015.09 1014.90 1014.69 1014.49 1014.30 1014.13 1014.01 1013.96 1014.00 1014.12 1014.34 1014.64 1014.99 1015.36 1015.71 1016.01 1016.24 1016.38 1016.44 1016.43 1016.38 1016.32 1016.28 1016.30 1016.38 1016.52 1016.70 1016.89 1017.08 1017.22 1017.30 1017.33
1015.92 1015.92 1015.95 1015.99 1016.00 1015.98 1015.92 1015.81 1015.66 1015.48 1015.28 1015.09 1014.89 1014.71 1014.55 1014.42 1014.32 1014.27 1014.28 1014.36 1014.50 1014.72 1015.01 1015.33 1015.67 1015.98 1016.24 1016.42 1016.52 1016.53 1016.47 1016.37 1016.27 1016.21 1016.20 1016.25 1016.37 1016.52 1016.69 1016.83 1016.91 1016.93 1016.88
1016.04 1016.04 1016.08 1016.12 1016.14 1016.12 1016.05 1015.92 1015.75 1015.55 1015.33 1015.12 1014.93 1014.77 1014.65 1014.57 1014.54 1014.55 1014.61 1014.73 1014.91 1015.14 1015.42 1015.73 1016.05 1016.34 1016.57 1016.72 1016.79 1016.77 1016.68 1016.55 1016.43 1016.33 1016.30 1016.33 1016.41 1016.53 1016.65 1016.74 1016.76 1016.69 1016.55
1016.14 1016.13 1016.16 1016.21 1016.24 1016.22 1016.15 1016.02 1015.84 1015.62 1015.39 1015.17 1014.99 1014.84 1014.75 1014.71 1014.72 1014.77 1014.87 1015.03 1015.23 1015.48 1015.77 1016.09 1016.40 1016.69 1016.92 1017.08 1017.14 1017.11 1017.02 1016.88 1016.74 1016.63 1016.57 1016.57 1016.62 1016.70 1016.77 1016.79 1016.74 1016.59 1016.35
1016.18 1016.16 1016.18 1016.23 1016.27 1016.27 1016.21 1016.09 1015.91 1015.69 1015.46 1015.24 1015.05 1014.91 1014.83 1014.80 1014.82 1014.89 1015.01 1015.18 1015.40 1015.66 1015.97 1016.31 1016.66 1016.97 1017.24 1017.42 1017.51 1017.51 1017.44 1017.31 1017.16 1017.04 1016.96 1016.93 1016.94 1016.97 1016.99 1016.95 1016.83 1016.60 1016.27
1016.14 1016.11 1016.13 1016.19 1016.24 1016.26 1016.23 1016.13 1015.97 1015.77 1015.54 1015.32 1015.12 1014.97 1014.87 1014.82 1014.82 1014.88 1014.99 1015.16 1015.38 1015.67 1016.00 1016.38 1016.77 1017.14 1017.46 1017.71 1017.86 1017.91 1017.87 1017.77 1017.63 1017.50 1017.40 1017.34 1017.32 1017.30 1017.27 1017.18 1016.99 1016.69 1016.28
1016.05 1016.02 1016.05 1016.12 1016.19 1016.23 1016.23 1016.16 1016.03 1015.85 1015.64 1015.41 1015.20 1015.03 1014.89 1014.80 1014.76 1014.78 1014.85 1015.00 1015.22 1015.51 1015.88 1016.30 1016.74 1017.19 1017.59 1017.91 1018.14 1018.25 1018.27 1018.20 1018.08 1017.95 1017.84 1017.75 1017.69 1017.64 1017.57 1017.44 1017.21 1016.86 1016.40
1015.95 1015.93 1015.97 1016.05 1016.14 1016.22 1016.24 1016.21 1016.11 1015.95 1015.75 1015.53 1015.30 1015.09 1014.91 1014.77 1014.67 1014.63 1014.66 1014.77 1014.97 1015.27 1015.65 1016.11 1016.61 1017.13 1017.61 1018.01 1018.32 1018.50 1018.57 1018.55 1018.45 1018.33 1018.21 1018.11 1018.03 1017.96 1017.86 1017.71 1017.46 1017.10 1016.60
1015.90 1015.89 1015.95 1016.04 1016.14 1016.24 1016.29 1016.28 1016.21 1016.07 1015.88 1015.66 1015.43 1015.19 1014.96 1014.77 1014.61 1014.51 1014.49 1014.55 1014.72 1015.00 1015.39 1015.88 1016.42 1016.99 1017.53 1018.01 1018.38 1018.62 1018.75 1018.76 1018.69 1018.59 1018.47 1018.37 1018.28 1018.21 1018.12 1017.97 1017.74 1017.39 1016.91
1015.91 1015.92 1015.98 1016.08 1016.19 1016.29 1016.35 1016.36 1016.31 1016.19 1016.02 1015.80 1015.56 1015.31 1015.05 1014.82 1014.62 1014.47 1014.40 1014.42 1014.55 1014.80 1015.17 1015.65 1016.21 1016.80 1017.37 1017.89 1018.30 1018.59 1018.75 1018.80 1018.76 1018.68 1018.58 1018.49 1018.43 1018.37 1018.31 1018.21 1018.02 1017.73 1017.31
1015.98 1016.00 1016.06 1016.15 1016.25 1016.35 1016.41 1016.42 1016.38 1016.27 1016.11 1015.91 1015.68 1015.43 1015.17 1014.92 1014.70 1014.52 1014.41 1014.39 1014.48 1014.69 1015.02 1015.47 1016.00 1016.57 1017.13 1017.65 1018.07 1018.38 1018.57 1018.64 1018.64 1018.58 1018.52 1018.46 1018.44 1018.44 1018.43 1018.40 1018.29 1018.09 1017.76
1016.07 1016.08 1016.14 1016.22 1016.30 1016.38 1016.42 1016.43 1016.38 1016.28 1016.14 1015.96 1015.75 1015.53 1015.29 1015.06 1014.84 1014.65 1014.52 1014.47 1014.51 1014.67 1014.94 1015.32 1015.79 1016.30 1016.82 1017.29 1017.70 1018.00 1018.19 1018.29 1018.32 1018.30 1018.28 1018.28 1018.32 1018.39 1018.46 1018.52 1018.52 1018.43 1018.23
1016.13 1016.14 1016.18 1016.23 1016.29 1016.34 1016.36 1016.34 1016.29 1016.20 1016.07 1015.92 1015.75 1015.56 1015.37 1015.17 1014.98 1014.81 1014.68 1014.61 1014.61 1014.70 1014.90 1015.19 1015.56 1015.98 1016.42 1016.83 1017.19 1017.46 1017.65 1017.77 1017.83 1017.86 1017.90 1017.96 1018.07 1018.22 1018.39 1018.56 1018.67 1018.72 1018.65
1016.15 1016.14 1016.16 1016.19 1016.22 1016.23 1016.22 1016.18 1016.11 1016.02 1015.90 1015.77 1015.64 1015.51 1015.36 1015.22 1015.08 1014.94 1014.82 1014.73 1014.70 1014.73 1014.85 1015.04 1015.30 1015.62 1015.95 1016.28 1016.57 1016.82 1017.00 1017.13 1017.22 1017.30 1017.40 1017.54 1017.72 1017.96 1018.22 1018.49 1018.73 1018.90 1018.98
1016.13 1016.10 1016.10 1016.10 1016.11 1016.09 1016.05 1015.98 1015.89 1015.78 1015.67 1015.55 1015.45 1015.35 1015.26 1015.17 1015.07 1014.97 1014.87 1014.79 1014.72 1014.71 1014.74 1014.84 1014.99 1015.20 1015.43 1015.68 1015.91 1016.11 1016.28 1016.43 1016.55 1016.69 1016.84 1017.05 1017.30 1017.61 1017.96 1018.32 1018.66 1018.95 1019.16
1016.11 1016.07 1016.06 1016.05 1016.04 1016.00 1015.93 1015.82 1015.70 1015.56 1015.42 1015.30 1015.20 1015.12 1015.05 1015.00 1014.94 1014.87 1014.79 1014.70 1014.62 1014.56 1014.54 1014.55 1014.62 1014.73 1014.88 1015.05 1015.24 1015.41 1015.58 1015.74 1015.90 1016.07 1016.28 1016.53 1016.84 1017.20 1017.60 1018.03 1018.44 1018.83 1019.15
1016.18 1016.13 1016.12 1016.12 1016.10 1016.04 1015.94 1015.79 1015.62 1015.43 1015.24 1015.08 1014.94 1014.84 1014.77 1014.72 1014.67 1014.62 1014.55 1014.46 1014.37 1014.28 1014.21 1014.17 1014.18 1014.23 1014.32 1014.44 1014.60 1014.76 1014.93 1015.11 1015.29 1015.50 1015.74 1016.03 1016.36 1016.75 1017.18 1017.63 1018.09 1018.53 1018.92
1016.39 1016.37 1016.37 1016.38 1016.36 1016.29 1016.15 1015.96 1015.72 1015.45 1015.18 1014.94 1014.73 1014.57 1014.45 1014.36 1014.30 1014.23 1014.16 1014.07 1013.97 1013.87 1013.77 1013.71 1013.68 1013.69 1013.76 1013.86 1014.00 1014.16 1014.35 1014.54 1014.76 1014.98 1015.24 1015.53 1015.87 1016.25 1016.67 1017.13 1017.59 1018.05 1018.48
Thickness
5756 5756 5756 5755 5757 5757 5757 5757 5757 5757 5758 5759 5759 5760 5761 5760 5760 5759 5756 5752 5749 5748 5746 5745 5743 5741 5740 5738 5736 5735 5733 5732 5731 5729 5728 5727 5725 5724 5722 5721 5720 5719 5717
5755 5756 5756 5756 5757 5757 5758 5758 5759 5758 5759 5760 5759 5759 5759 5759 5758 5758 5757 5754 5750 5749 5747 5746 5744 5742 5741 5739 5737 5736 5734 5732 5731 5729 5728 5726 5725 5724 5722 5721 5720 5719 5717
5755 5756 5757 5757 5757 5757 5757 5758 5758 5759 5760 5760 5759 5759 5759 5758 5758 5757 5757 5756 5753 5750 5748 5746 5745 5743 5742 5740 5738 5736 5735 5733 5731 5730 5728 5726 5725 5723 5722 5720 5719 5718 5717
5756 5756 5758 5758 5757 5759 5759 5759 5759 5759 5759 5759 5759 5759 5759 5758 5757 5757 5756 5755 5754 5752 5749 5747 5745 5743 5742 5741 5739 5737 5735 5733 5732 5730 5728 5726 5725 5723 5721 5720 5718 5717 5716
5757 5757 5758 5757 5758 5759 5760 5761 5761 5760 5758 5758 5758 5758 5759 5758 5757 5757 5756 5754 5753 5751 5750 5747 5744 5743 5742 5740 5739 5737 5736 5734 5732 5730 5728 5726 5724 5723 5721 5719 5718 5716 5715
5758 5758 5759 5758 5759 5760 5759 5759 5758 5758 5758 5758 5759 5758 5757 5758 5757 5756 5755 5754 5752 5751 5749 5747 5745 5743 5740 5739 5737 5736 5735 5734 5731 5729 5727 5725 5724 5722 5720 5718 5717 5715 5714
5759 5758 5760 5758 5759 5760 5758 5760 5759 5758 5758 5758 5756 5754 5755 5757 5755 5754 5753 5752 5751 5749 5747 5745 5743 5742 5741 5737 5735 5734 5733 5732 5730 5728 5726 5724 5723 5721 5719 5717 5715 5714 5712
5759 5760 5758 5760 5760 5759 5758 5758 5757 5757 5758 5758 5755 5751 5748 5748 5749 5752 5750 5748 5747 5745 5743 5742 5741 5739 5738 5736 5733 5731 5730 5729 5728 5726 5724 5722 5721 5719 5717 5715 5714 5712 5710
5760 5759 5759 5760 5759 5760 5759 5758 5757 5755 5754 5756 5757 5751 5746 5742 5743 5745 5744 5743 5742 5741 5740 5739 5737 5735 5733 5731 5730 5728 5727 5726 5724 5723 5721 5720 5718 5717 5716 5714 5712 5710 5709
5761 5760 5760 5759 5759 5761 5759 5759 5759 5757 5754 5753 5754 5754 5752 5749 5741 5737 5738 5739 5738 5736 5735 5734 5733 5730 5728 5726 5724 5722 5722 5721 5720 5719 5718 5717 5716 5715 5713 5712 5710 5708 5707
5761 5761 5760 5760 5759 5760 5759 5758 5757 5756 5756 5754 5753 5752 5750 5748 5747 5738 5731 5731 5731 5731 5730 5728 5727 5726 5724 5722 5720 5717 5716 5715 5715 5714 5713 5712 5712 5711 5709 5708 5706 5705 5703
5763 5761 5761 5760 5759 5759 5758 5758 5757 5757 5755 5754 5753 5752 5749 5746 5743 5739 5733 5729 5726 5725 5725 5723 5722 5721 5719 5717 5714 5711 5710 5709 5708 5708 5707 5706 5706 5705 5703 5702 5701 5700 5698
5763 5760 5761 5759 5759 5759 5758 5758 5757 5756 5755 5752 5751 5752 5751 5748 5745 5740 5734 5729 5724 5721 5719 5717 5716 5715 5713 5711 5708 5705 5703 5702 5702 5701 5699 5699 5698 5696 5695 5694 5693 5692 5691
5763 5761 5759 5758 5758 5757 5758 5756 5757 5755 5753 5752 5751 5749 5748 5747 5745 5741 5735 5730 5723 5718 5714 5710 5709 5708 5707 5704 5701 5699 5697 5695 5694 5693 5692 5691 5689 5688 5686 5685 5684 5683 5682
5763 5760 5758 5757 5756 5755 5754 5754 5753 5751 5750 5750 5749 5746 5745 5744 5742 5739 5736 5731 5725 5717 5708 5705 5704 5702 5700 5697 5694 5693 5690 5687 5686 5685 5683 5682 5681 5679 5677 5676 5675 5673 5673
5760 5758 5757 5755 5754 5753 5751 5750 5750 5748 5746 5745 5743 5741 5739 5740 5737 5735 5733 5729 5727 5720 5709 5703 5699 5696 5693 5692 5688 5686 5683 5681 5678 5676 5674 5673 5671 5670 5668 5666 5665 5664 5663
5758 5756 5754 5753 5751 5749 5748 5746 5746 5744 5742 5740 5739 5737 5734 5733 5732 5731 5728 5725 5722 5717 5707 5699 5695 5690 5687 5685 5682 5681 5678 5676 5671 5667 5665 5663 5662 5659 5657 5656 5654 5653 5652
5757 5754 5752 5750 5748 5746 5744 5742 5741 5740 5738 5735 5733 5732 5730 5729 5726 5725 5723 5720 5716 5711 5705 5695 5690 5685 5682 5679 5676 5675 5673 5670 5666 5660 5657 5655 5652 5650 5648 5646 5644 5643 5641
5754 5752 5749 5746 5744 5742 5740 5739 5737 5735 5733 5731 5729 5726 5725 5723 5720 5719 5716 5714 5710 5706 5700 5693 5686 5681 5677 5674 5671 5669 5666 5662 5660 5654 5650 5647 5643 5641 5638 5636 5634 5632 5630
5752 5749 5746 5743 5741 5739 5737 5735 5733 5730 5728 5726 5724 5722 5719 5717 5714 5712 5710 5706 5703 5699 5694 5689 5683 5677 5672 5668 5667 5664 5660 5656 5653 5650 5645 5640 5636 5632 5630 5627 5625 5622 5620
5749 5745 5742 5740 5738 5736 5734 5730 5729 5726 5723 5721 5718 5716 5713 5709 5706 5705 5705 5701 5697 5694 5690 5685 5679 5674 5668 5664 5662 5660 5656 5652 5647 5644 5640 5637 5632 5629 5624 5618 5615 5611 5609
5745 5742 5738 5736 5734 5732 5724 5722 5722 5721 5718 5716 5713 5711 5709 5705 5700 5696 5693 5691 5689 5687 5684 5680 5675 5668 5662 5660 5656 5655 5651 5647 5642 5638 5636 5632 5628 5624 5618 5612 5606 5602 5600
5741 5737 5734 5731 5728 5722 5717 5716 5714 5715 5713 5710 5707 5706 5706 5701 5697 5694 5688 5684 5681 5678 5675 5674 5670 5664 5660 5656 5652 5649 5644 5641 5636 5633 5629 5625 5622 5617 5612 5604 5598 5594 5591
5737 5734 5730 5727 5722 5717 5712 5710 5708 5709 5707 5703 5701 5698 5696 5693 5691 5688 5686 5681 5677 5672 5669 5667 5663 5659 5654 5650 5646 5643 5638 5633 5629 5625 5622 5619 5615 5611 5607 5599 5591 5588 5584
5733 5730 5726 5722 5718 5712 5706 5704 5702 5705 5701 5698 5695 5691 5689 5685 5680 5678 5678 5674 5670 5666 5661 5657 5653 5649 5645 5641 5639 5638 5633 5630 5624 5620 5616 5613 5609 5606 5601 5595 5587 5582 5578
5730 5727 5722 5718 5714 5709 5701 5699 5697 5701 5696 5694 5688 5684 5678 5676 5672 5670 5671 5668 5664 5660 5657 5653 5647 5643 5639 5635 5631 5629 5628 5624 5620 5615 5610 5607 5604 5600 5596 5592 5587 5580 5575